カタログに戻る

STARLINK-37822

運用中通信SSO
NORAD 69424·PAYLOAD·🇺🇸 United States

打ち上げ Jun 7, 2026 から Vandenberg Space Force Base

Loading…

次のパス (今後24時間)

TLE

最新Source: CelesTrak SupGP

元期: Sep 15, 2026, 03:11 UTC

1 69424C 26126E   26258.13312500  .00002416  00000+0  75007-4 0  2583
2 69424  97.2845 119.4809 0001446 102.2971 283.4201 15.33431898    17

AllMySatでSTARLINK-37822をリアルタイム追跡

Download on the App Store